Flag for Germany Weather past 2 weeks in Peine, Lower Saxony, Germany

Now
63 °F

Scattered clouds.


Feels Like: 63 °F
Forecast: 51 / 66 °F
Wind: 10 mph from West

Location: Braunschweig

Current Time: Jul 30, 2015 at 6:40:19 PM

Latest Report: Jul 30, 2015 at 6:20 PM


Visibility: N/A

Pressure: 29.92 "Hg

Humidity: 56%

Dew point: 46 °F

Location of PeineLocation

Historic Weather in Peine — Graph

°F

Peine temperature yesterday

Maximum temperature yesterday: 68 °F (at 1:20 PM)
Minimum temperature yesterday: 55 °F (at 6:50 AM)
Average temperature yesterday: 60 °F

Past Weeks' High & Low Weather Summary

 TemperatureHumidityPressure
High91 °F (Jul 17, 4:50 PM)100% (Jul 16, 5:20 AM)30.09 "Hg (Jul 16, 5:20 AM)
Low55 °F (Jul 24, 6:50 AM)24% (Jul 17, 6:50 PM)29.53 "Hg (Jul 25, 1:50 PM)
Average69 °F67%29.86 "Hg
* Reported Jul 15 5:20 PM — Jul 30 5:20 PM, Peine, Weather by CustomWeather, © 2015

Note: Actual official high and low records may vary slightly from our data, if they occured in-between our weather recording intervals... More about our weather records

Advertising

Peine weather history for previous 24 hours

 ConditionsComfort  
Time TempWeatherWind HumidityBarometerVisibility
5:20 PM
Thu, Jul 30
64 °FPassing clouds.17 mph56%29.92 "HgN/A
4:50 PM66 °FPassing clouds.20 mph46%29.89 "HgN/A
4:20 PM64 °FSunny.16 mph52%29.89 "Hg10 mi
3:50 PM66 °FPartly sunny.15 mph49%29.89 "HgN/A
3:20 PM66 °FSunny.18 mph46%29.89 "Hg10 mi
2:50 PM66 °FScattered clouds.14 mph49%29.89 "HgN/A
2:20 PM66 °FPassing clouds.17 mph46%29.89 "HgN/A
1:50 PM64 °FScattered clouds.18 mph52%29.89 "HgN/A
1:20 PM63 °FScattered clouds.17 mph52%29.89 "HgN/A
12:50 PM63 °FScattered clouds.14 mph59%29.89 "HgN/A
12:20 PM63 °FScattered clouds.16 mph59%29.89 "HgN/A
11:50 AM59 °FBroken clouds.16 mph72%29.86 "HgN/A
11:20 AM61 °FBroken clouds.17 mph59%29.86 "HgN/A
10:20 AM61 °FPartly sunny.17 mph63%29.86 "HgN/A
9:50 AM61 °FBroken clouds.16 mph63%29.86 "HgN/A
9:20 AM57 °FPartly sunny.17 mph72%29.83 "HgN/A
8:50 AM57 °FPartly sunny.15 mph77%29.83 "HgN/A
8:20 AM55 °FMostly cloudy.13 mph82%29.83 "HgN/A
7:50 AM55 °FMostly cloudy.12 mph82%29.83 "HgN/A
7:20 AM55 °FMostly cloudy.14 mph77%29.83 "HgN/A
6:50 AM55 °FMostly cloudy.14 mph77%29.80 "HgN/A
8:50 PM
Wed, Jul 29
59 °FPartly sunny.17 mph63%29.74 "HgN/A
8:20 PM59 °FPartly sunny.12 mph68%29.71 "HgN/A
7:50 PM59 °FSunny.14 mph63%29.71 "Hg10 mi
7:20 PM61 °FSunny.15 mph63%29.71 "Hg10 mi
6:50 PM59 °FScattered clouds.16 mph68%29.71 "HgN/A
6:20 PM63 °FScattered clouds.15 mph56%29.71 "HgN/A
Weather by CustomWeather, © 2015

See weather overviewHow to use our weather pages